Regional Weather Roundup
Issued by NWS Cleveland, OH

Home | Current Version | Previous Version | Graphics & Text | Print | Product List | Glossary On
Versions: 1 2 3 4 5 6 7 8 9 10 11 12 13 14 15 16 17 18 19 20 21 22 23 24 25 26 27 28 29 30 31 32 33 34 35 36 37 38 39 40 41 42 43 44 45 46 47 48 49 50
000
ASUS41 KCLE 211110
RWRCLE
OHIO REGIONAL WEATHER ROUNDUP
NATIONAL WEATHER SERVICE CLEVELAND, OH
700 AM EDT MON MAY 21 2018

NOTE: "FAIR" INDICATES FEW OR NO CLOUDS BELOW 12,000 FEET WITH NO
SIGNIFICANT WEATHER AND/OR OBSTRUCTIONS TO VISIBILITY.

OHZ001>008-015>018-024>027-034-035-043-044-211200-
   NORTHWEST OHIO

CITY           SKY/WX    TMP DP  RH WIND       PRES   REMARKS
DEFIANCE       CLOUDY    56  53  90 E8        30.20S
FINDLAY        MOCLDY    56  49  77 NE8       30.19R
TOLEDO EXPRESS CLOUDY    54  52  93 NE7       30.21R
TOLEDO EXEC    MOCLDY    55  49  80 NE7       30.22R
LIMA           FAIR      55  52  89 E9        30.18R
$$

OHZ009>014-019>023-028>033-038-089-211200-
   NORTHEAST OHIO

CITY           SKY/WX    TMP DP  RH WIND       PRES   REMARKS
CLE-HOPKINS    MOCLDY    53  48  83 N3        30.24R
CLE-LAKEFRONT  FAIR      53  47  79 NE7       30.22R
CUY CO. ARPT   PTCLDY    52  50  93 CALM      30.23
LORAIN-ELYRIA  FAIR      51  43  74 NE10      30.22S
ASHTABULA      FAIR      49  49 100 CALM      30.23R
AKRON-CANTON   MOCLDY    55  50  83 NE8       30.21R
WOOSTER        FAIR      54  52  93 NE6       30.22R FOG
MANSFIELD      FAIR      53  52  96 NE3       30.21R FOG
YOUNGSTOWN     MOCLDY    53  51  93 CALM      30.21R
$$

OHZ042-051>053-060>062-070>072-077>081-211200-
  SOUTHWEST OHIO

CITY           SKY/WX    TMP DP  RH WIND       PRES   REMARKS
CINC-COVINGTON CLOUDY    67  64  90 NE8       30.11R
CINC-LUNKEN    FAIR      66  65  96 NE5       30.12R
HAMILTON       FAIR      65  61  87 E5        30.13R
DAYTON         MOCLDY    60  59  96 E6        30.15S
WRIGHT-PAT AFB MOCLDY    62  57  86 NE5       30.15R
DAYTON GENERAL FAIR      64  58  80 E12       30.13R
WILMINGTON     FAIR      61  60  97 E7        30.14R
$$

OHZ036-037-039>041-045>050-054>059-063>069-073>076-082>088-211200-
  CENTRAL AND SOUTHEAST OHIO

CITY           SKY/WX    TMP DP  RH WIND       PRES   REMARKS
COLUMBUS       CLOUDY    61  56  83 E7        30.16R
OSU AIRPORT    MOCLDY    60  57  89 NE6       30.16R
BOLTON FIELD   FAIR      60  59  97 NE3       30.17R
RICKENBACK AFB FAIR      59  60 100 MISG      30.15R
NEWARK         LGT RAIN  59  56  89 NE7       30.17S
MARION         MOCLDY    56  53  90 NE5       30.20R
LANCASTER      CLOUDY    61  58  90 E6        30.16R
ZANESVILLE     LGT RAIN  60  57  89 NW6       30.19R
NEW PHILLY     NOT AVBL
$$




USA.gov is the U.S. government's official web portal to all federal, state and local government web resources and services.